Read MPEC 2006-V65
Read MPEC 2006-W01
M.P.E.C. 2006-V66 Issued 2006 Nov. 15, 18:47 UT
The Minor Planet Electronic Circulars contain information on unusual
minor planets and routine data on comets. They are published
on behalf of Commission 20 of the International Astronomical Union by the
Minor Planet Center, Smithsonian Astrophysical Observatory,
Cambridge, MA 02138, U.S.A.
Prepared using the Tamkin Foundation Computer Network
MPC@CFA.HARVARD.EDU
URL http://cfa-www.harvard.edu/iau/mpc.html ISSN 1523-6714
2006 VT13
Observations:
K06V13T* C2006 11 15.13029 23 37 34.28 +20 28 49.4 17.6 V EV066703
K06V13T C2006 11 15.13678 23 37 39.90 +20 29 17.1 17.5 V EV066703
K06V13T C2006 11 15.14331 23 37 45.48 +20 29 42.9 18.1 V EV066703
K06V13T C2006 11 15.14985 23 37 51.13 +20 30 09.2 17.9 V EV066703
K06V13T C2006 11 15.20922 23 38 42.43 +20 34 09.9 17.9 V EV066703
K06V13T C2006 11 15.21065 23 38 43.65 +20 34 15.7 17.9 V EV066703
K06V13T C2006 11 15.21208 23 38 44.91 +20 34 21.7 17.8 V EV066703
K06V13T C2006 11 15.21352 23 38 46.17 +20 34 27.6 17.7 V EV066703
K06V13T C2006 11 15.27183 23 39 36.68 +20 38 18.6 17.9 V EV066703
K06V13T C2006 11 15.27235 23 39 37.15 +20 38 20.3 17.8 V EV066703
K06V13T C2006 11 15.27288 23 39 37.62 +20 38 22.7 17.8 V EV066703
K06V13T C2006 11 15.27340 23 39 38.08 +20 38 25.1 17.7 V EV066703
K06V13T C2006 11 15.34097 23 40 37.02 +20 42 47.8 17.9 V EV066703
K06V13T C2006 11 15.34155 23 40 37.63 +20 42 51.9 17.1 V EV066703
K06V13T C2006 11 15.34207 23 40 37.88 +20 42 53.7 17.4 V EV066703
K06V13T C2006 11 15.34260 23 40 38.38 +20 42 54.2 17.8 V EV066703
K06V13T C2006 11 15.70954 23 46 08.04 +21 06 40.2 17.7 V EV066A89
K06V13T C2006 11 15.71462 23 46 12.42 +21 06 59.9 17.7 V EV066A89
K06V13T C2006 11 15.71971 23 46 16.76 +21 07 20.1 17.6 V EV066A89
K06V13T C2006 11 15.75136 23 46 43.54 +21 09 19.1 17.9 R EV066113
K06V13T C2006 11 15.75196 23 46 44.04 +21 09 21.2 18.0 R EV066113
K06V13T C2006 11 15.75259 23 46 44.56 +21 09 23.6 18.0 R EV066113
K06V13T C2006 11 15.75334 23 46 45.21 +21 09 26.3 18.1 R EV066113
K06V13T C2006 11 15.75411 23 46 45.84 +21 09 29.3 18.1 R EV066113
Observer details:
113 Volkssternwarte Drebach, Schoenbrunn. Observer G. Lehmann. 0.5-m f/5
reflector + CCD.
703 Catalina Sky Survey. Observer R. E. Hill. Measurers E. C. Beshore,
E. J. Christensen, G. J. Garradd, A. R. Gibbs, A. D. Grauer, R. E. Hill,
R. A. Kowalski, S. M. Larson, R. H. McNaught. 0.68-m Schmidt + CCD.
A89 Sterni Observatory, Kempten. Observer A. Bonne. 0.2-m f/10
Schmidt-Cassegrain + CCD + f/7.26 focal reducer.
Orbital elements:
2006 VT13 PHA, Earth MOID = 0.0031 AU
Epoch 2006 Sept. 22.0 TT = JDT 2454000.5 MPC
M 355.13875 (2000.0) P Q
n 0.25332932 Peri. 37.44774 +0.99684639 -0.07652266
a 2.4736927 Node 326.92251 +0.06025464 +0.90220309
e 0.6162658 Incl. 2.20653 +0.05163961 +0.42446892
P 3.89 H 20.7 G 0.15 U 9
Residuals in seconds of arc
061115 703 0.3+ 0.2- 061115 703 0.1+ 0.2- 061115 A89 0.4- 0.4-
061115 703 0.5+ 0.8+ 061115 703 0.3+ 0.5- 061115 A89 0.1+ 0.4-
061115 703 0.4- 0.2- 061115 703 0.4+ 0.2- 061115 A89 0.0 0.1+
061115 703 0.4- 0.7- 061115 703 0.6+ 0.2+ 061115 113 0.4+ 0.2+
061115 703 0.1- 0.4- 061115 703 0.0 0.3- 061115 113 0.2+ 0.1+
061115 703 0.3- 0.3- 061115 703 1.4+ 1.6+ 061115 113 0.0 0.0
061115 703 0.0 0.1- 061115 703 1.5- 1.4+ 061115 113 0.1+ 0.1-
061115 703 0.2+ 0.1+ 061115 703 1.0- 0.2- 061115 113 0.2- 0.1-
Ephemeris:
2006 VT13 a,e,i = 2.47, 0.62, 2 q = 0.9492
Date TT R. A. (2000) Decl. Delta r Elong. Phase V
2006 11 11 22 32.77 +14 36.3 0.104 1.039 115.2 59.6 18.0
2006 11 21 00 53.86 +24 58.5 0.139 1.099 140.3 35.0 18.1
2006 12 01 02 14.43 +26 44.3 0.207 1.169 149.4 25.4 18.8
2006 12 11 02 58.37 +26 26.7 0.292 1.245 149.8 23.4 19.6
2006 12 21 03 26.38 +25 54.5 0.391 1.327 146.2 24.3 20.4
2006 12 31 03 47.56 +25 29.3 0.504 1.410 140.9 26.1 21.1
2007 01 10 04 05.74 +25 13.1 0.630 1.496 134.9 27.8 21.8
Timothy B. Spahr (C) Copyright 2006 MPC M.P.E.C. 2006-V66
Read MPEC 2006-V65
Read MPEC 2006-W01
Our Web policy. Index to the CBAT/MPC/ICQ pages.